Location: Firdgum
(53.2488°N, 5.5615°E)
Time: 15:01:39
(UTC+00:00)

Radarsat Rocket - Pass Details

Date: 08 December 2019
Orbit: 933 x 1492 km, 100.6° (Epoch: 24 January)

Event Time Altitude Azimuth Distance (km) Brightness Sun altitude
Rises 05:40:47 0° 20° (NNE) 3,634 7.0 -16.4°
Reaches altitude 10° 05:43:10 10° 23° (NNE) 2,714 6.4 -16.0°
Maximum altitude 05:49:10 69° 106° (ESE) 1,094 4.5 -15.2°
Drops below altitude 10° 05:55:48 10° 190° (S) 2,978 6.6 -14.2°
Sets 05:58:30 0° 193° (SSW) 4,012 7.3 -13.8°
